Location: Unspecified
(64.9000°N, 0.0000°E)
Time: 07:57:39
(UTC+00:00)

Envisat - Visible Passes

Search period start: 16 October 2019 00:00
Search period end: 26 October 2019 00:00
Orbit: 764 x 766 km, 98.1° (Epoch: 15 October)

Date Brightness Start Highest point End Pass type
(mag) Time Alt. Az. Time Alt. Az. Time Alt. Az.
16 Oct 6.2 05:19:33 10° NE 05:22:31 15° ENE 05:25:29 10° ESE visible
16 Oct 4.4 18:25:13 10° SSW 18:30:03 42° W 18:34:55 10° NNW visible
16 Oct 6.2 20:08:20 10° W 20:10:29 12° WNW 20:12:39 10° NW visible
17 Oct 3.5 17:47:59 10° S 17:53:03 67° WSW 17:58:09 10° NNW visible
17 Oct 5.7 19:29:21 10° SW 19:33:03 20° W 19:36:46 10° NW visible
18 Oct 5.9 05:44:36 10° NE 05:48:28 21° E 05:52:18 10° SE visible
18 Oct 3.0 17:11:08 10° SSE 17:16:13 80° ENE 17:21:21 10° NNW visible
18 Oct 5.0 18:51:18 10° SSW 18:55:47 31° W 19:00:19 10° NNW visible
19 Oct 6.3 05:08:36 10° NE 05:11:03 13° ENE 05:13:29 10° ESE visible
19 Oct 4.1 18:13:46 10° S 18:18:42 48° W 18:23:40 10° NNW visible
19 Oct 6.0 19:56:16 10° WSW 19:59:00 14° WNW 20:01:46 10° NW visible
20 Oct 5.4 06:09:53 10° NNE 06:14:19 29° E 06:18:43 10° SSE visible
20 Oct 3.3 17:36:39 10° SSE 17:41:46 77° WSW 17:46:53 10° NNW visible
20 Oct 5.5 19:17:39 10° SW 19:21:38 23° W 19:25:38 10° NNW visible
21 Oct 6.0 05:33:29 10° NE 05:37:02 18° E 05:40:32 10° SE visible
21 Oct 3.0 16:59:54 10° SSE 17:04:58 71° ENE 17:10:03 10° NNW visible
21 Oct 4.7 18:39:45 10° SSW 18:44:25 35° W 18:49:07 10° NNW visible
21 Oct 6.4 20:24:36 10° WNW 20:25:03 10° WNW 20:25:31 10° WNW visible
22 Oct 6.4 04:57:52 10° NE 04:59:34 11° ENE 05:01:15 10° E visible
22 Oct 3.8 18:02:22 10° S 18:07:22 56° WSW 18:12:24 10° NNW visible
22 Oct 5.9 19:44:20 10° WSW 19:47:33 17° W 19:50:46 10° NW visible
23 Oct 5.6 05:58:42 10° NNE 06:02:55 25° E 06:07:06 10° SE visible
23 Oct 3.1 17:25:22 10° SSE 17:30:28 87° WSW 17:35:37 10° NNW visible
23 Oct 5.3 19:05:59 10° SW 19:10:13 26° W 19:14:28 10° NNW visible
24 Oct 6.1 05:22:26 10° NE 05:25:35 16° ENE 05:28:42 10° ESE visible
24 Oct 3.0 16:48:42 10° SE 16:53:43 62° ENE 16:58:46 10° NNW visible
24 Oct 4.4 18:28:16 10° SSW 18:33:03 40° W 18:37:52 10° NNW visible
24 Oct 6.2 20:11:42 10° W 20:13:33 12° WNW 20:15:24 10° NW visible
25 Oct 5.0 06:24:03 10° NNE 06:28:43 34° E 06:33:21 10° SSE visible
25 Oct 3.5 17:51:00 10° S 17:56:03 64° WSW 18:01:09 10° NNW visible
25 Oct 5.7 19:32:31 10° SW 19:36:06 19° W 19:39:41 10° NW visible
